www.pogodaiklimat.ru

Погода и климат >> Архив погоды >> Великобритания >> Бенсон


ПОГОДА в Бенсоне

  • Прогноз погоды в Бенсоне
  • Монитор погоды в Бенсоне

АРХИВ ПОГОДЫ в Бенсоне

Время (UTC), дата Ветер
(напр.,м/с)
 
Видим.   Явления Облачность Т
(С)
Тd
(С)
f
(%)
Тe
(С)
Тes
(С)
Комфортность P
(гПа)
Po
(гПа)
Тmin
(С)
Tmax
(С)
R
(мм)
R24
(мм)
S
(см)
22 10.06 С 7 8000 м слаб. дождь 10/10 180 м
[Frnb]
+9.7 +9.0 95 +6 +6 1012.2 1005.3
23 10.06 С 6 4000 м дождь 10/10 180 м
[Frnb]
+9.8 +9.2 96 +6 +6 1011.9 1004.9
00 11.06 С 5 3700 м н/о +9.8 +9.3 97 +6 +6 1011.3 1004.4 11
01 11.06 С 5 11 км н/о +10.1 +9.6 97 +7 +7 1010.8 1003.9
02 11.06 С 6 20 км н/о +10.1 +9.4 95 +7 +7 1010.5 1003.6
03 11.06 С 7 4600 м н/о +10.1 +9.5 96 +6 +6 1010.1 1003.1
04 11.06 С 6 7000 м н/о +10.4 +10.0 97 +7 +7 1010.1 1003.2
05 11.06 С 6 22 км н/о +10.3 +9.7 96 +7 +7 1010.6 1003.7
06 11.06 СВ 6 8000 м слаб. дождь 10/10 180 м
[Frnb]
+10.5 +9.8 95 +7 +7 1011.0 1004.1 +9.0 16
07 11.06 С 7 15 км слаб. дождь 10/10 240 м
[Sc]
+10.7 +9.8 94 +7 +7 1011.5 1004.6
08 11.06 СВ 6 15 км дождь {морось} 10/10 240 м
[Frnb]
+10.8 +10.2 96 +8 +8 1011.9 1005.0
09 11.06 С 6 12 км слаб. морось {дождь} 10/10 240 м
[Frnb]
+11.4 +10.7 95 +8 +8 1012.0 1005.1
10 11.06 С 6 12 км слаб. морось 10/10 240 м
[Sc]
+11.8 +11.0 95 +9 +9 1012.3 1005.4
11 11.06 С 5 7000 м дождь {морось} 10/10 150 м
[St]
+12.0 +11.4 96 +10 +10 1012.6 1005.7
12 11.06 С 6 8000 м дождь {морось} 10/10 180 м
[Frnb]
+11.7 +11.0 95 +9 +9 1012.9 1006.0 0.8
13 11.06 С 6 14 км в посл. час морось 10/10 240 м
[St]
+11.3 +10.4 94 +8 +8 1013.3 1006.4
14 11.06 С 7 15 км дождь {морось} 10/10 180 м
[Frnb]
+11.9 +10.8 93 +9 +9 1013.4 1006.5
15 11.06 С 7 10 км слаб. морось {дождь} 10/10 210 м
[St]
+12.3 +10.6 89 +9 +9 1013.4 1006.5
16 11.06 С 7 20 км в посл. час морось 10/10 240 м
[St]
+11.5 +10.0 90 +8 +8 1013.6 1006.7
17 11.06 С 6 9000 м слаб. морось 10/10 180 м
[Frnb]
+10.9 +9.9 94 +8 +8 1013.4 1006.5
18 11.06 С 6 12 км слаб. морось {дождь} 10/10 210 м
[Frnb]
+10.6 +9.7 94 +7 +7 1013.4 1006.5 +13.1 1
19 11.06 С 6 15 км слаб. морось 10/10 180 м
[Frnb]
+10.3 +9.3 94 +7 +7 1013.7 1006.8
20 11.06 С 5 12 км слаб. морось 10/10 210 м
[Frnb]
+9.9 +9.0 94 +7 +7 1014.1 1007.2
21 11.06 С 4 5000 м слаб. морось 10/10 150 м
[Frnb]
+9.7 +9.2 97 +7 +7 1014.2 1007.3
22 11.06 С 4 3700 м морось 10/10 120 м
[Frnb]
+9.5 +9.1 97 +7 +7 1013.9 1007.0
23 11.06 С 4 5000 м слаб. морось 10/10 120 м
[Frnb]
+9.6 +9.3 98 +7 +7 1013.6 1006.7
00 12.06 С 3 7000 м слаб. морось 10/10 120 м
[Frnb]
+9.6 +9.2 97 +7 +7 1013.1 1006.1 0.6
01 12.06 С 5 6000 м слаб. морось 10/10 120 м
[Frnb]
+9.5 +9.1 97 +6 +6 1012.6 1005.7
02 12.06 С 4 3900 м н/о +9.5 +9.2 98 +6 +6 1012.3 1005.4
03 12.06 С 4 22 км н/о +9.4 +9.1 98 +7 +7 1011.5 1004.6
04 12.06 С 4 35 км н/о +9.4 +9.1 98 +7 +7 1011.2 1004.3
05 12.06 С 2 35 км н/о +9.6 +9.2 97 +8 +8 1011.1 1004.2
06 12.06 С 3 15 км 10/10 150 м
[St]
+9.9 +9.4 97 +7 +7 1011.1 1004.2 +9.3 0.6
07 12.06 СВ 4 30 км 10/10 240 м
[St]
+10.4 +9.5 94 +8 +8 1011.0 1004.1
08 12.06 С 2 35 км 10/10 240 м
[St]
+10.6 +9.4 92 +9 +9 1010.8 1003.9
09 12.06 СЗ 2 40 км 10/10 360 м
[Sc]
+11.6 +9.7 88 +11 +11 1010.4 1003.5
10 12.06 СЗ 3 40 км 10/10 360 м
[Sc]
+12.7 +9.8 83 +11 +11 1010.3 1003.4
11 12.06 СЗ 3 40 км 10/10 450 м
[Cu Sc]
+13.3 +9.6 78 +12 +12 1010.3 1003.4
12 12.06 С 3 40 км 10/10 450 м
[Sc]
+13.5 +9.9 79 +13 +13 1010.0 1003.2
13 12.06 С 2 35 км в посл. час дождь 10/10 600 м
[Cu Sc]
+14.5 +10.1 75 +14 +14 1009.7 1002.9
14 12.06 С 3 25 км слаб. дождь 10/10 500 м
[Cu Sc]
+13.7 +9.8 77 +13 +13 1009.5 1002.7
15 12.06 С 1 15 км слаб. дождь 10/10 540 м
[Cu Sc]
+13.0 +10.8 86 +13 +13 1009.6 1002.8
16 12.06 С 1 15 км слаб. дождь 10/10 960 м
[Sc]
+12.9 +11.0 88 +14 +14 1009.2 1002.4
17 12.06 С 1 15 км слаб. дождь 10/10 270 м
[Sc]
+12.8 +11.2 90 +13 +13 1008.7 1001.9
18 12.06 З 1 15 км слаб. дождь 10/1 300 м
[St As op]
+12.5 +10.6 88 +13 +14 1008.2 1001.4 +14.5 2
19 12.06 ЮЗ 1 15 км слаб. дождь 10/10 210 м
[Sc]
+12.5 +11.5 94 +12 +12 1008.0 1001.1
20 12.06 ЮЗ 1 10 км слаб. дождь 10/10 180 м
[Sc]
+12.0 +11.3 95 +13 +13 1008.1 1001.3
21 12.06 ЮЗ 2 12 км слаб. дождь 10/10 240 м
[Sc]
+11.3 +10.7 96 +10 +10 1008.0 1001.2
22 12.06 Ю 2 15 км слаб. дождь 10/10 450 м
[Sc]
+11.0 +10.5 97 +10 +10 1007.7 1000.8
23 12.06 Ю 3 12 км слаб. дождь 10/10 1500 м
[Sc]
+10.6 +10.3 98 +9 +9 1007.2 1000.3
00 13.06 Ю 3 15 км слаб. дождь 10/10 900 м
[Sc]
+10.5 +10.2 98 +8 +8 1006.5 999.7 2
01 13.06 Ю 3 12 км слаб. дождь 10/10 240 м
[Sc]
+10.5 +10.2 98 +9 +9 1005.9 999.1
02 13.06 Ю 3 8000 м н/о +10.7 +10.3 97 +8 +8 1005.3 998.4
03 13.06 Ю 4 9000 м н/о +10.6 +10.2 97 +8 +8 1004.7 997.9
04 13.06 Ю 4 12 км н/о +10.6 +9.8 95 +8 +8 1004.7 997.8
05 13.06 Ю 4 12 км н/о +10.5 +9.8 95 +8 +8 1004.5 997.6
06 13.06 Ю 5 15 км слаб. дождь 10/10 360 м
[Sc]
+11.0 +10.3 95 +8 +8 1004.1 997.3 +10.5 4
07 13.06 Ю 6 20 км слаб. дождь 10/8 330 м
[Sc Ac trans]
+11.4 +10.3 93 +8 +8 1003.9 997.1
08 13.06 Ю 6 20 км в посл. час дождь 10/10 420 м
[Sc]
+12.0 +10.4 90 +9 +9 1004.0 997.2
09 13.06 Ю 5 20 км слаб. дождь 10/10 540 м
[Sc]
+12.5 +10.3 86 +10 +10 1004.1 997.3
10 13.06 Ю 5 18 км слаб. дождь 10/10 540 м
[Sc]
+12.7 +10.6 87 +10 +10 1004.2 997.4
11 13.06 Ю 6 20 км слаб. дождь 10/10 540 м
[Cu Sc]
+12.9 +10.3 84 +10 +10 1004.3 997.5
12 13.06 Ю 6 12 км дождь 10/10 360 м
[Sc]
+12.7 +11.1 90 +10 +10 1004.3 997.5 1
13 13.06 Ю 7 15 км дождь 10/10 420 м
[Sc]
+13.0 +11.1 88 +10 +10 1004.3 997.5
14 13.06 Ю 7 7000 м слаб. дождь 10/10 330 м
[Cu Sc]
+12.9 +11.3 90 +10 +10 1004.3 997.5
15 13.06 Ю 6 15 км слаб. дождь 10/10 300 м
[Sc]
+12.8 +11.7 93 +10 +10 1004.4 997.6
16 13.06 Ю 7 30 км в посл. час дождь 10/10 400 м
[Sc]
+13.7 +11.0 84 +11 +11 1004.3 997.5
17 13.06 Ю 7 35 км 10/10 420 м
[Sc]
+13.6 +11.3 86 +11 +11 1004.4 997.6
18 13.06 ЮЗ 6 35 км {дождь} 9/9 400 м
[Sc]
+13.7 +11.3 85 +11 +12 1004.8 998.0 +14.0 2
19 13.06 ЮЗ 5 7000 м осадки на расстоянии {ливн. осадки} 10/10 360 м
[Cu Sc]
+13.4 +11.1 86 +11 +11 1005.5 998.7
20 13.06 Ю 3 30 км в посл. час ливневой дождь 10/10 360 м
[Sc]
+12.9 +11.4 91 +11 +11 1006.3 999.5
21 13.06 Ю 3 30 км в посл. час ливневой дождь 10/10 330 м
[Cu Sc]
+12.3 +10.9 91 +11 +11 1007.3 1000.4
22 13.06 Ю 3 20 км 9/8 450 м
[Sc Ac trans]
+11.5 +10.3 92 +10 +10 1007.9 1001.0
23 13.06 Ю 3 35 км 10/3 1500 м
[Sc Ac As]
+10.9 +10.0 94 +9 +9 1007.9 1001.0
00 14.06 Ю 4 40 км н/о +10.8 +10.0 95 +8 +8 1008.1 1001.2 0.0
01 14.06 Ю 3 30 км н/о +10.9 +10.1 95 +9 +9 1008.0 1001.1
02 14.06 Ю 3 8000 м н/о +11.3 +10.7 96 +9 +9 1007.7 1000.9
03 14.06 Ю 3 7000 м н/о +11.5 +11.2 98 +10 +10 1007.6 1000.8
04 14.06 Ю 4 17 км н/о +11.6 +11.2 97 +9 +9 1007.7 1000.9
05 14.06 Ю 5 26 км н/о +11.9 +11.2 95 +9 +9 1007.9 1001.1
06 14.06 Ю 7 20 км в посл. час дождь 9/9 240 м
[St]
+12.3 +11.7 96 +9 +9 1007.9 1001.0 +10.6 3
07 14.06 Ю 8 15 км дождь {морось} 10/10 400 м
[St]
+13.0 +11.5 91 +10 +10 1008.2 1001.4
08 14.06 Ю 6 30 км в посл. час дождь {морось} 10/10 400 м
[Sc]
+13.1 +11.5 90 +11 +11 1008.8 1001.9
09 14.06 Ю 6 15 км {дождь, морось} 10/10 450 м
[Sc]
+13.8 +11.4 85 +12 +12 1009.1 1002.2
10 14.06 Ю 8 25 км 9/9 600 м
[Cu Sc]
+15.9 +11.7 76 +14 +15 1009.2 1002.4
11 14.06 Ю 7 30 км в посл. час ливневой дождь 9/9 660 м
[Cu Sc Ac trans Ci sp]
+15.2 +11.5 79 +13 +14 1009.6 1002.8
12 14.06 Ю 7 30 км слаб. ливневой дождь 6/6 720 м
[Cu Sc Ci fib]
+16.4 +11.1 71 +15 +17 1009.3 1002.5 0.0
13 14.06 Ю 9
{13}
30 км в посл. час ливневой дождь 6/6 960 м
[Cu Sc Ac trans Ci sp]
+18.4 +10.7 61 +18 +19 1009.3 1002.6
14 14.06 Ю 9-14
{14}
30 км 4/4 960 м
[Cu hum Ci fib]
+18.4 +10.8 61 +18 +19 1009.7 1003.0
15 14.06 Ю 9
{13}
35 км {ливн. осадки} 5/5 960 м
[Cu Sc]
+18.0 +11.2 64 +17 +18 1010.0 1003.2
16 14.06 Ю 7
{13}
35 км 6/6 1050 м
[Cu Sc]
+16.8 +10.1 65 +16 +16 1010.1 1003.3
17 14.06 Ю 8 35 км н/о +16.5 +9.4 63 +15 +15 1010.1 1003.4
18 14.06 Ю 6 30 км н/о +16.6 +9.4 62 +16 +16 1010.3 1003.6 +19.5 0.0
19 14.06 Ю 6 35 км н/о +15.6 +8.9 64 +14 +14 1010.6 1003.8
20 14.06 Ю 5 35 км н/о +14.0 +8.6 70 +12 +12 1010.9 1004.1
21 14.06 Ю 4 30 км н/о +11.5 +8.1 80 +9 +9 1011.6 1004.7
22 14.06 Ю 4 35 км н/о +11.0 +9.1 88 +9 +9 1011.6 1004.7
23 14.06 Ю 3 30 км н/о +9.1 +7.7 91 +7 +7 1012.0 1005.0
00 15.06 Ю 4 25 км н/о +9.4 +8.6 95 +6 +6 1011.9 1005.0
01 15.06 Ю 4 25 км н/о +11.0 +10.0 94 +9 +9 1011.9 1005.0
02 15.06 Ю 4 20 км н/о +11.2 +10.1 93 +9 +9 1011.7 1004.8
03 15.06 Ю 4 23 км н/о +10.4 +9.7 95 +8 +8 1011.4 1004.5
04 15.06 Ю 3 28 км н/о +9.7 +9.0 95 +7 +7 1011.6 1004.7
05 15.06 Ю 3 35 км н/о +10.7 +10.0 95 +9 +9 1011.6 1004.7
06 15.06 ЮВ 4 35 км н/о +12.3 +10.4 88 +10 +10 1011.6 1004.7 +8.9
07 15.06 Ю 6 30 км 5/3 360 м
[Cu Sc Ci fib]
+14.1 +11.5 84 +12 +13 1011.5 1004.7
08 15.06 Ю 9 30 км 8/5 450 м
[Cu hum Ac trans Ci fib]
+16.0 +10.8 71 +14 +15 1011.5 1004.7
09 15.06 Ю 7 30 км 9/8 720 м
[Cu Sc Ac trans]
+15.9 +10.7 71 +14 +15 1011.7 1004.9
10 15.06 Ю 7 35 км 10/10 750 м
[Cu Sc]
+16.0 +9.5 65 +15 +15 1011.6 1004.9
11 15.06 Ю 7 35 км 10/10 900 м
[Sc]
+16.0 +9.2 64 +15 +15 1011.8 1005.0
12 15.06 Ю 7 20 км слаб. дождь 10/10 540 м
[Cu Sc]
+15.2 +10.6 74 +13 +13 1012.3 1005.5 0.0
13 15.06 Ю 9 20 км в посл. час дождь 9/9 540 м
[Cu Sc]
+16.2 +11.9 76 +14 +15 1012.1 1005.3
14 15.06 Ю 8
{13}
10 км в посл. час дождь 9/9 540 м
[Cu Sc]
+15.7 +11.8 78 +14 +14 1012.1 1005.3
15 15.06 Ю 8
{14}
30 км {дождь} 9/9 600 м
[Cu Sc]
+16.7 +12.7 77 +15 +16 1011.8 1005.0
16 15.06 Ю 8
{13}
35 км 6/4 900 м
[Cu hum Ci fib]
+17.5 +11.1 66 +16 +17 1011.7 1004.9
17 15.06 Ю 8
{13}
30 км н/о +17.1 +10.1 63 +16 +16 1011.8 1005.1
18 15.06 Ю 6 35 км н/о +17.4 +8.8 57 +17 +17 1012.0 1005.2 +18.4 0.0
19 15.06 Ю 6 35 км н/о +15.8 +6.4 54 +15 +15 1012.5 1005.7
20 15.06 З 3 30 км н/о +13.3 +8.6 73 +12 +12 1013.1 1006.2
21 15.06 ЮВ 3 35 км н/о +10.0 +7.5 84 +8 +8 1013.6 1006.7
22 15.06 ЮВ 1 27 км н/о +7.9 +6.2 89 +8 +8 1014.2 1007.2
23 15.06 Ю 2 35 км н/о +8.3 +7.5 95 +7 +7 1014.5 1007.5
00 16.06 ЮВ 3 27 км н/о +8.3 +7.0 92 +6 +6 1014.8 1007.9
01 16.06 Ю 4 25 км н/о +8.7 +7.7 93 +6 +6 1014.8 1007.8
02 16.06 Ю 2 12 км н/о +7.3 +6.7 96 +5 +5 1015.1 1008.1
03 16.06 ЮВ 4 18 км н/о +9.6 +9.5 99 +7 +7 1015.0 1008.1
04 16.06 ЮВ 3 12 км н/о +9.5 +9.1 97 +7 +7 1014.9 1008.0
05 16.06 Ю 4 12 км н/о +10.9 +10.4 97 +8 +8 1014.9 1008.0
06 16.06 Ю 4 11 км н/о +11.6 +10.9 95 +9 +9 1015.0 1008.1 +6.7
07 16.06 Ю 5 17 км н/о +12.8 +11.8 94 +11 +11 1015.1 1008.2
08 16.06 Ю 5 27 км н/о +13.5 +12.5 94 +11 +11 1015.2 1008.4
09 16.06 Ю 6 30 км н/о +14.8 +12.8 88 +13 +13 1015.2 1008.3
10 16.06 Ю 6 30 км н/о +17.0 +12.1 73 +16 +16 1015.1 1008.3
11 16.06 ЮЗ 6 35 км н/о +16.3 +12.6 79 +15 +15 1015.4 1008.6
12 16.06 Ю 8
{13}
30 км н/о +17.8 +11.6 67 +17 +17 1015.4 1008.7 0.2
13 16.06 Ю 9
{15}
40 км н/о +19.2 +11.6 61 +19 +19 1015.6 1008.8
14 16.06 ЮЗ 9
{14}
35 км 6/6 960 м
[Cu Sc Ac trans]
+19.2 +11.4 61 +19 +20 1015.8 1009.0
15 16.06 Ю 8
{14}
30 км 6/6 900 м
[Cu Sc Ac trans Ci sp]
+18.7 +11.7 64 +19 +19 1016.2 1009.4
16 16.06 Ю 8
{13}
30 км 8/5 900 м
[Cu Sc Ac trans Ci sp]
+18.1 +11.6 66 +17 +18 1016.2 1009.4
17 16.06 ЮЗ 8
{13}
30 км 8/5 900 м
[Cu Sc Ac trans]
+18.5 +11.6 64 +18 +18 1016.5 1009.7
18 16.06 ЮЗ 9 30 км 6/4 1050 м
[Cu Sc Ac trans Ci fib]
+17.8 +10.0 60 +17 +17 1016.6 1009.8 +20.5 0.2
19 16.06 Ю 8
{14}
30 км н/о +16.9 +9.9 63 +16 +16 1017.0 1010.2
20 16.06 Ю 6 30 км н/о +15.3 +10.3 72 +14 +14 1017.3 1010.4
21 16.06 Ю 5 27 км н/о +13.4 +10.1 80 +11 +11 1017.8 1010.9
22 16.06 Ю 5 25 км н/о +13.1 +10.7 85 +11 +11 1017.9 1011.1
23 16.06 Ю 5 19 км н/о +13.1 +11.1 88 +11 +11 1017.9 1011.0
00 17.06 Ю 4 15 км н/о +12.1 +10.8 92 +10 +10 1017.9 1011.0
01 17.06 Ю 4 17 км н/о +11.6 +10.6 94 +9 +9 1017.7 1010.8
02 17.06 Ю 4 15 км н/о +11.0 +10.1 94 +9 +9 1017.6 1010.6
03 17.06 Ю 4 17 км н/о +10.5 +9.8 95 +8 +8 1017.3 1010.3
04 17.06 Ю 4 14 км н/о +10.7 +10.2 97 +8 +8 1017.3 1010.3
05 17.06 Ю 5 17 км н/о +11.6 +11.0 96 +9 +9 1017.2 1010.3
06 17.06 Ю 6 22 км 5/5 1020 м
[Sc]
+13.2 +11.7 91 +11 +11 1017.4 1010.5 +10.4
07 17.06 Ю 5 25 км 9/9 450 м
[Cu Sc]
+14.7 +11.2 80 +13 +13 1017.7 1010.9
08 17.06 Ю 5 30 км 8/8 600 м
[Cu Sc Ac trans]
+15.2 +10.4 73 +14 +15 1017.8 1011.0
09 17.06 Ю 8 30 км 6/4 840 м
[Cu med, cong Ci fib]
+16.6 +9.5 63 +15 +16 1017.7 1010.9
10 17.06 Ю 8 35 км 9/9 900 м
[Cu Sc]
+16.9 +10.1 64 +16 +16 1017.6 1010.8
11 17.06 ЮЗ 7 35 км 9/9 1140 м
[Cu Sc]
+17.6 +9.9 61 +17 +17 1017.5 1010.7
12 17.06 ЮЗ 7 35 км 9/9 1050 м
[Cu Sc]
+17.6 +9.5 59 +17 +17 1017.3 1010.5
13 17.06 Ю 7 35 км 9/9 1140 м
[Sc diur, vesp]
+17.8 +9.3 57 +17 +18 1017.1 1010.3
14 17.06 ЮЗ 6 30 км 8/8 1140 м
[Sc diur, vesp]
+18.9 +9.5 54 +19 +20 1016.8 1010.0
15 17.06 ЮЗ 5 30 км 9/9 1170 м
[Cu Sc Ac trans Ci fib]
+18.2 +10.6 61 +18 +19 1016.7 1009.9
16 17.06 Ю 6 30 км 9/9 1200 м
[Cu Sc Ac trans Ci fib]
+19.4 +10.2 55 +20 +20 1016.3 1009.5
17 17.06 ЮЗ 6 35 км 9/9 1140 м
[Cu Sc Ac trans Ci fib]
+17.8 +9.5 58 +17 +17 1016.2 1009.5
18 17.06 ЮЗ 6 35 км 8/6 1140 м
[Cu Sc Ac trans Ci fib]
+17.3 +10.1 63 +17 +17 1016.2 1009.4 +19.8
19 17.06 ЮЗ 4 30 км 6/4 1140 м
[Cu Sc Ac trans Ci fib]
+17.1 +10.5 65 +17 +17 1016.2 1009.4
20 17.06 Ю 3 30 км 4/3 1440 м
[Sc Ac trans Ci fib]
+15.5 +9.6 68 +15 +15 1016.2 1009.4
21 17.06 Ю 3 30 км 5/3 1440 м
[Sc Ac trans Ci fib]
+13.4 +9.6 78 +12 +12 1017.0 1010.1
22 17.06 Ю 2 30 км 8/4 1440 м
[Sc Ac trans Ci sp]
+12.0 +9.5 85 +11 +11 1016.9 1010.0

 

Местоположение метеостанции Бенсон (Великобритания): широта 51.62 долгота -1.08 высота над уровнем моря 57 м.

В архиве по умолчанию представлена погода в Бенсоне за последнюю неделю. Архивные данные за месяц целиком и за предыдущие месяцы, начиная с января 2011 года, Вы можете получить, выбрав интересующий диапазон дат из раскрывающегося списка и нажав кнопку "Ввод!".


*Определитесь, кто Вы:
робот инопланетянин человек

Внимание! Время в таблицах - всемирное. Для получения местного времени необходимо прибавить поправку, которая равна 0 ч.

Смотрите также архив погоды в соседних городах и на ближайших метеорологических станциях:

Погода в Хай-Уикоме (Великобритания) (20 км)
Погода на Авиабазе Brize Norton (Великобритания) (37 км)
Погода в Фарнборо (Великобритания) (43 км)
Погода в Одихеме (Великобритания) (44 км)
Погода в Аэропорту Хитроу (Великобритания) (46 км)
Погода в Норхолте (Великобритания) (46 км)
Погода в Литл Ризсингтон (Великобритания) (50 км)
Погода в Мидл Уоллоп (Великобритания) (62 км)
Погода в Линхеме (Великобритания) (64 км)
Погода в Чарлвуде (Великобритания) (65 км)

Пояснения к столбцам:

Ветер - указаны скорость ветра в м/с - средняя за 10 мин, порывы в срок и между сроками (в фигурных скобках) и направление, откуда дует ветер: С - северный, СВ - северо-восточный, В - восточный, ЮВ - юго-восточный, Ю - южный, ЮЗ - юго-западный, З - западный, СЗ - северо-западный.
Видимость - горизонтальная дальность видимости в метрах или километрах. При видимости от 1 до 10 км при отсутствии осадков обычно наблюдается дымка, при ухудшении видимости до 1 км и менее - туман. В сухую погоду видимость может ухудшаться дымом, пылью или мглою.
Явления - указаны атмосферные явления, наблюдавшиеся в срок или в последний час перед сроком; фигурными скобками обозначены явления, наблюдавшиеся между сроками (за 1-3 часа до срока); квадратными скобками обозначены град или гололедные отложения с указанием их диаметра в мм.
Облачность - указаны через наклонную черту общая и нижняя облачность в баллах и высота нижней границы облаков в метрах; квадратными скобками обозначены формы облаков: Ci - перистые, Cs - перисто-слоистые, Cc - перисто-кучевые, Ac - высококучевые, As - высокослоистые, Sc - слоисто-кучевые, Ns - слоисто-дождевые, Cu - кучевые, Cb - кучево-дождевые. Подробнее классификацию облаков см. в Атласе облаков (PDF).
T - Температура воздуха - температура, измеренная на высоте 2 м над землей.
Td - Температура точки росы - температура, при понижении до которой содержащийся в воздухе водяной пар достигнет насыщения.
f - Относительная влажность воздуха - влажноcть воздуха, измеренная на высоте 2 м над землей.
Te - Эффективная температура - температура, которую ощущает одетый по сезону человек в тени. Характеристика душности погоды. При расчете учитывается влияние влажности воздуха и скорости ветра на теплоощущения человека.
Tes - Эффективная температура на солнце - температура, которую ощущает человек, с поправкой на солнечный нагрев. Характеристика знойности погоды. Зависит от высоты солнца над горизонтом, облачности и скорости ветра. Ночью, в пасмурную погоду, а также при ветре 12 м/с и более поправка равна нулю.
P - Атмосферное давление - приведенное к уровню моря атмосферное давление.
Po - Атмосферное давление - измеренное на уровне метеостанции атмосферное давление.
Tmin - Минимальная температура - минимум температуры воздуха на высоте 2 м над землей.
Tmax - Максимальная температура - максимум температуры воздуха на высоте 2 м над землей.
R - Количество осадков - Количество выпавших осадков за период времени, мм. При наведении курсора мыши на число - период времени, за который выпало указанное количество осадков.
R24 - Количество осадков - Количество выпавших осадков за 24 часа, мм.
S - Снежный покров - Высота снежного покрова, см. При наведении курсора мыши на число - состояние снежного покрова и степень покрытия местности в баллах.